ANA57 RJTT-RJCC

Flight info

Callsign ANA57
Flight time 1h 16m
Altitude 41000
Route AGRIS Y11 SAMBO Y119 OHMAR Y13 SIRAO Y139 NAVER
Aircraft B772/H-SDE2E3FGHIJ5LORVWXY/LB1D1

Departure

Time 2026-05-07 04:01
Airport Tokyo Haneda International Airport (RJTT)

Arrival

Time 2026-05-07 05:17
Airport New Chitose Airport (RJCC)
Time Latitude Longitude Altitude Speed Heading
2026-05-07 03:21 35.54999 139.79065 28 ft 0 kts 240°
2026-05-07 03:47 35.55004 139.79076 27 ft 3 kts 241°
2026-05-07 03:47 35.55014 139.79098 28 ft 3 kts 242°
2026-05-07 03:47 35.55023 139.79120 27 ft 3 kts 243°
2026-05-07 03:48 35.55031 139.79138 27 ft 3 kts 242°
2026-05-07 03:48 35.55038 139.79160 26 ft 3 kts 262°
2026-05-07 03:48 35.55038 139.79184 27 ft 3 kts 284°
2026-05-07 03:48 35.55033 139.79207 27 ft 3 kts 263°
2026-05-07 03:49 35.55032 139.79208 28 ft 3 kts 248°
2026-05-07 03:49 35.55029 139.79185 28 ft 3 kts 267°
2026-05-07 03:49 35.55034 139.79162 28 ft 3 kts 293°
2026-05-07 03:49 35.55046 139.79145 28 ft 3 kts 320°
2026-05-07 03:50 35.55058 139.79136 28 ft 0 kts 330°
2026-05-07 03:52 35.55089 139.79114 28 ft 6 kts 330°
2026-05-07 03:52 35.55123 139.79090 28 ft 6 kts 330°
2026-05-07 03:52 35.55157 139.79066 28 ft 6 kts 332°
2026-05-07 03:53 35.55195 139.79060 28 ft 6 kts 14°
2026-05-07 03:53 35.55224 139.79093 28 ft 6 kts 52°
2026-05-07 03:53 35.55246 139.79133 28 ft 6 kts 60°
2026-05-07 03:53 35.55265 139.79176 28 ft 6 kts 60°
2026-05-07 03:54 35.55285 139.79218 28 ft 6 kts 59°
2026-05-07 03:54 35.55308 139.79257 28 ft 6 kts 45°
2026-05-07 03:54 35.55344 139.79273 28 ft 6 kts 359°
2026-05-07 03:54 35.55384 139.79255 28 ft 10 kts 333°
2026-05-07 03:55 35.55468 139.79196 26 ft 15 kts 329°
2026-05-07 03:55 35.55557 139.79132 28 ft 15 kts 330°
2026-05-07 03:55 35.55644 139.79070 27 ft 15 kts 330°
2026-05-07 03:55 35.55733 139.79008 28 ft 15 kts 330°
2026-05-07 03:56 35.55822 139.78945 28 ft 15 kts 330°
2026-05-07 03:56 35.55911 139.78881 28 ft 15 kts 330°
2026-05-07 03:56 35.55999 139.78818 27 ft 15 kts 330°
2026-05-07 03:56 35.56088 139.78756 27 ft 15 kts 330°
2026-05-07 03:57 35.56176 139.78693 27 ft 15 kts 330°
2026-05-07 03:57 35.56249 139.78643 26 ft 9 kts 330°
2026-05-07 03:57 35.56289 139.78614 27 ft 6 kts 330°
2026-05-07 03:57 35.56323 139.78590 27 ft 6 kts 330°
2026-05-07 03:58 35.56356 139.78566 27 ft 6 kts 329°
2026-05-07 03:58 35.56384 139.78547 27 ft 4 kts 336°
2026-05-07 03:58 35.56411 139.78551 27 ft 4 kts 27°
2026-05-07 03:58 35.56430 139.78574 26 ft 3 kts 49°
2026-05-07 03:59 35.56439 139.78589 27 ft 1 kts 56°
2026-05-07 03:59 35.56444 139.78598 27 ft 1 kts 59°
2026-05-07 03:59 35.56456 139.78621 27 ft 5 kts 56°
2026-05-07 03:59 35.56477 139.78660 26 ft 5 kts 57°
2026-05-07 04:00 35.56487 139.78703 28 ft 6 kts 95°
2026-05-07 04:00 35.56470 139.78740 26 ft 5 kts 132°
2026-05-07 04:00 35.56451 139.78757 27 ft 2 kts 149°
2026-05-07 04:00 35.56446 139.78760 28 ft 0 kts 149°
2026-05-07 04:01 35.56435 139.78768 28 ft 9 kts 149°
2026-05-07 04:01 35.56181 139.78949 28 ft 83 kts 150°
2026-05-07 04:01 35.55457 139.79469 58 ft 153 kts 148°
2026-05-07 04:01 35.54513 139.80137 925 ft 157 kts 151°
2026-05-07 04:02 35.53603 139.80876 1931 ft 160 kts 142°
2026-05-07 04:02 35.52839 139.81924 2413 ft 170 kts 133°
2026-05-07 04:02 35.51950 139.82938 2802 ft 179 kts 144°
2026-05-07 04:02 35.51012 139.83981 3350 ft 187 kts 138°
2026-05-07 04:03 35.50097 139.85128 3948 ft 189 kts 139°
2026-05-07 04:03 35.49172 139.86301 4553 ft 193 kts 139°
2026-05-07 04:03 35.48202 139.87531 4861 ft 212 kts 139°
2026-05-07 04:03 35.47118 139.88902 5049 ft 235 kts 139°
2026-05-07 04:04 35.45956 139.90403 5442 ft 249 kts 133°
2026-05-07 04:04 35.45184 139.92412 5724 ft 279 kts 99°
2026-05-07 04:04 35.45476 139.94797 6347 ft 294 kts 65°
2026-05-07 04:04 35.46729 139.96788 6984 ft 297 kts 44°
2026-05-07 04:05 35.48243 139.98504 7450 ft 302 kts 33°
2026-05-07 04:05 35.50220 139.99379 8118 ft 299 kts 358°
2026-05-07 04:05 35.52219 139.98993 8972 ft 287 kts 339°
2026-05-07 04:05 35.54137 139.98318 9641 ft 295 kts 340°
2026-05-07 04:06 35.56132 139.97647 10369 ft 301 kts 340°
2026-05-07 04:06 35.58130 139.96967 10664 ft 324 kts 341°
2026-05-07 04:06 35.60340 139.96220 11385 ft 333 kts 342°
2026-05-07 04:06 35.62668 139.95899 11998 ft 348 kts 357°
2026-05-07 04:07 35.65127 139.96113 12921 ft 357 kts
2026-05-07 04:07 35.67619 139.96391 13907 ft 362 kts
2026-05-07 04:07 35.70149 139.96612 14640 ft 368 kts 359°
2026-05-07 04:07 35.72707 139.96777 15029 ft 368 kts 356°
2026-05-07 04:08 35.75218 139.96305 15008 ft 360 kts 335°
2026-05-07 04:08 35.77513 139.95144 15002 ft 360 kts 332°
2026-05-07 04:08 35.79823 139.93982 15056 ft 358 kts 333°
2026-05-07 04:08 35.82162 139.92847 15294 ft 365 kts 334°
2026-05-07 04:09 35.84440 139.91764 16255 ft 368 kts 334°
2026-05-07 04:09 35.86937 139.90588 17304 ft 370 kts 334°
2026-05-07 04:09 35.89365 139.89445 18220 ft 376 kts 333°
2026-05-07 04:09 35.91823 139.88287 18973 ft 381 kts 335°
2026-05-07 04:10 35.94306 139.87118 19831 ft 382 kts 335°
2026-05-07 04:10 35.96802 139.85971 20571 ft 383 kts 339°
2026-05-07 04:10 35.99503 139.85552 21067 ft 403 kts
2026-05-07 04:10 36.02247 139.86392 21707 ft 410 kts 19°
2026-05-07 04:11 36.04889 139.87693 22333 ft 417 kts 19°
2026-05-07 04:11 36.07601 139.89019 23061 ft 422 kts 19°
2026-05-07 04:11 36.10353 139.90343 23833 ft 425 kts 18°
2026-05-07 04:11 36.13162 139.91674 24546 ft 428 kts 18°
2026-05-07 04:12 36.15919 139.92968 25238 ft 431 kts 18°
2026-05-07 04:12 36.18729 139.94273 25898 ft 432 kts 16°
2026-05-07 04:12 36.21657 139.95068 26415 ft 431 kts 358°
2026-05-07 04:12 36.24647 139.94966 26935 ft 432 kts 353°
2026-05-07 04:13 36.27702 139.94766 27564 ft 436 kts 353°
2026-05-07 04:13 36.30704 139.94607 28250 ft 439 kts 354°
2026-05-07 04:13 36.33766 139.94488 28921 ft 441 kts 354°
2026-05-07 04:13 36.36848 139.94395 29513 ft 445 kts 354°
2026-05-07 04:14 36.39963 139.94309 30061 ft 450 kts 354°
2026-05-07 04:14 36.43104 139.94239 30523 ft 454 kts 356°
2026-05-07 04:14 36.46274 139.94307 31009 ft 457 kts 358°
2026-05-07 04:14 36.49467 139.94461 31515 ft 460 kts 358°
2026-05-07 04:15 36.52661 139.94640 32013 ft 462 kts 358°
2026-05-07 04:15 36.55883 139.94814 32471 ft 464 kts 358°
2026-05-07 04:15 36.59112 139.94973 32886 ft 467 kts 357°
2026-05-07 04:15 36.62372 139.95122 33287 ft 470 kts 357°
2026-05-07 04:16 36.65621 139.95263 33697 ft 472 kts 357°
2026-05-07 04:16 36.68914 139.95403 34107 ft 474 kts 357°
2026-05-07 04:16 36.72213 139.95543 34433 ft 476 kts 357°
2026-05-07 04:16 36.75531 139.95684 34725 ft 479 kts 357°
2026-05-07 04:17 36.78876 139.95828 34978 ft 482 kts 357°
2026-05-07 04:17 36.82237 139.95973 35225 ft 485 kts 357°
2026-05-07 04:17 36.85613 139.96126 35504 ft 487 kts 358°
2026-05-07 04:17 36.89007 139.96510 35867 ft 491 kts
2026-05-07 04:18 36.92368 139.97312 36222 ft 493 kts
2026-05-07 04:18 36.94589 139.97922 36462 ft 493 kts
2026-05-07 04:18 36.97937 139.98851 36794 ft 493 kts
2026-05-07 04:18 37.01303 139.99746 37107 ft 493 kts
2026-05-07 04:19 37.04661 140.00612 37436 ft 493 kts
2026-05-07 04:19 37.08023 140.01472 37770 ft 493 kts
2026-05-07 04:19 37.11386 140.02335 38071 ft 494 kts
2026-05-07 04:19 37.14753 140.03202 38347 ft 494 kts
2026-05-07 04:20 37.18118 140.04071 38656 ft 494 kts
2026-05-07 04:20 37.21490 140.04943 38937 ft 493 kts
2026-05-07 04:20 37.24850 140.05814 39216 ft 493 kts
2026-05-07 04:21 37.31555 140.07554 39718 ft 492 kts
2026-05-07 04:21 37.34911 140.08426 39932 ft 493 kts
2026-05-07 04:21 37.41653 140.10178 40021 ft 494 kts
2026-05-07 04:22 37.48374 140.11932 40013 ft 491 kts
2026-05-07 04:22 37.55058 140.13675 40022 ft 490 kts
2026-05-07 04:23 37.61735 140.15419 40025 ft 490 kts
2026-05-07 04:23 37.68395 140.17163 40030 ft 489 kts
2026-05-07 04:24 37.75039 140.18903 40014 ft 490 kts
2026-05-07 04:24 37.81703 140.20656 40029 ft 489 kts
2026-05-07 04:25 37.88368 140.22404 40027 ft 489 kts
2026-05-07 04:25 37.95047 140.24162 40035 ft 490 kts
2026-05-07 04:26 38.01645 140.25904 40176 ft 492 kts
2026-05-07 04:26 38.04985 140.26788 40446 ft 491 kts
2026-05-07 04:26 38.08318 140.27673 40732 ft 489 kts
2026-05-07 04:27 38.11646 140.28557 40952 ft 489 kts
2026-05-07 04:27 38.14978 140.29438 41010 ft 491 kts
2026-05-07 04:27 38.21661 140.31212 41020 ft 488 kts
2026-05-07 04:28 38.28298 140.32979 41022 ft 486 kts
2026-05-07 04:28 38.34892 140.34735 41056 ft 484 kts
2026-05-07 04:29 38.41502 140.36542 41029 ft 487 kts
2026-05-07 04:29 38.48041 140.38640 41023 ft 489 kts
2026-05-07 04:30 38.54627 140.40826 41032 ft 489 kts
2026-05-07 04:30 38.61230 140.42980 41032 ft 489 kts
2026-05-07 04:31 38.67828 140.45108 41009 ft 489 kts
2026-05-07 04:31 38.74411 140.47244 40988 ft 487 kts
2026-05-07 04:32 38.80976 140.49360 41025 ft 487 kts
2026-05-07 04:32 38.87489 140.51492 40986 ft 481 kts
2026-05-07 04:33 38.93994 140.53581 41006 ft 485 kts
2026-05-07 04:33 39.00576 140.55705 41036 ft 491 kts
2026-05-07 04:34 39.07220 140.57886 41025 ft 495 kts
2026-05-07 04:34 39.13894 140.60075 41023 ft 496 kts
2026-05-07 04:35 39.20581 140.62278 41020 ft 495 kts
2026-05-07 04:35 39.27248 140.64473 41019 ft 494 kts
2026-05-07 04:36 39.33901 140.66666 41020 ft 493 kts
2026-05-07 04:36 39.40500 140.68846 41008 ft 492 kts
2026-05-07 04:37 39.47122 140.71039 41022 ft 490 kts
2026-05-07 04:37 39.53726 140.73229 41005 ft 489 kts
2026-05-07 04:38 39.60313 140.75415 41010 ft 489 kts
2026-05-07 04:38 39.66907 140.77614 40978 ft 488 kts
2026-05-07 04:39 39.73426 140.79811 41011 ft 484 kts
2026-05-07 04:39 39.80021 140.81977 41010 ft 492 kts
2026-05-07 04:40 39.86676 140.84219 41009 ft 494 kts
2026-05-07 04:40 39.93346 140.86460 40988 ft 495 kts
2026-05-07 04:41 39.99984 140.88693 40992 ft 495 kts
2026-05-07 04:41 40.06657 140.90942 40987 ft 495 kts
2026-05-07 04:42 40.13336 140.93194 40991 ft 495 kts
2026-05-07 04:42 40.19989 140.95019 40974 ft 486 kts 357°
2026-05-07 04:43 40.26631 140.95443 40970 ft 474 kts 351°
2026-05-07 04:43 40.33212 140.95569 40961 ft 472 kts 351°
2026-05-07 04:44 40.39776 140.95735 40973 ft 471 kts 351°
2026-05-07 04:44 40.46335 140.95940 40971 ft 472 kts 351°
2026-05-07 04:45 40.52899 140.96160 40962 ft 472 kts 351°
2026-05-07 04:45 40.59458 140.96380 40942 ft 471 kts 351°
2026-05-07 04:46 40.66017 140.96593 40972 ft 471 kts 351°
2026-05-07 04:46 40.69314 140.96699 40453 ft 480 kts 351°
2026-05-07 04:46 40.72659 140.96807 39901 ft 479 kts 351°
2026-05-07 04:47 40.75968 140.96926 39504 ft 472 kts 351°
2026-05-07 04:47 40.79232 140.97044 39102 ft 466 kts 350°
2026-05-07 04:47 40.82454 140.97158 38730 ft 461 kts 349°
2026-05-07 04:47 40.85647 140.97265 38282 ft 456 kts 349°
2026-05-07 04:48 40.88801 140.97370 37865 ft 451 kts 349°
2026-05-07 04:48 40.91914 140.97474 37485 ft 445 kts 349°
2026-05-07 04:48 40.94992 140.97576 37114 ft 440 kts 349°
2026-05-07 04:48 40.98038 140.97678 36751 ft 435 kts 349°
2026-05-07 04:49 41.01043 140.97778 36400 ft 430 kts 349°
2026-05-07 04:49 41.04023 140.97876 36053 ft 426 kts 349°
2026-05-07 04:49 41.06933 140.97971 35705 ft 422 kts 349°
2026-05-07 04:49 41.09858 140.98067 35334 ft 418 kts 349°
2026-05-07 04:50 41.12769 140.98161 34971 ft 420 kts 349°
2026-05-07 04:50 41.15732 140.98248 34614 ft 433 kts 350°
2026-05-07 04:50 41.18782 140.98340 34223 ft 442 kts 350°
2026-05-07 04:50 41.21851 140.98451 33792 ft 440 kts 351°
2026-05-07 04:51 41.24907 140.98565 33367 ft 437 kts 351°
2026-05-07 04:51 41.27933 140.98710 32959 ft 437 kts 354°
2026-05-07 04:51 41.30973 140.99248 32539 ft 443 kts
2026-05-07 04:51 41.33978 141.00198 32175 ft 447 kts
2026-05-07 04:52 41.36921 141.01569 31788 ft 448 kts 12°
2026-05-07 04:52 41.39815 141.03064 31414 ft 444 kts 13°
2026-05-07 04:52 41.42689 141.04538 31087 ft 440 kts 12°
2026-05-07 04:52 41.45534 141.05959 30711 ft 436 kts 12°
2026-05-07 04:53 41.48383 141.07363 30345 ft 433 kts 12°
2026-05-07 04:53 41.51204 141.08753 29978 ft 430 kts 12°
2026-05-07 04:53 41.54002 141.10131 29544 ft 428 kts 12°
2026-05-07 04:53 41.56784 141.11504 29121 ft 425 kts 12°
2026-05-07 04:54 41.59553 141.12874 28714 ft 423 kts 12°
2026-05-07 04:54 41.62309 141.14240 28319 ft 420 kts 12°
2026-05-07 04:54 41.65045 141.15596 27909 ft 418 kts 12°
2026-05-07 04:54 41.67766 141.16947 27507 ft 416 kts 12°
2026-05-07 04:55 41.70470 141.18298 27116 ft 414 kts 12°
2026-05-07 04:55 41.73156 141.19655 26728 ft 412 kts 12°
2026-05-07 04:55 41.75835 141.21013 26342 ft 411 kts 13°
2026-05-07 04:55 41.78502 141.22366 25957 ft 409 kts 13°
2026-05-07 04:56 41.81164 141.23717 25617 ft 408 kts 12°
2026-05-07 04:56 41.83814 141.25060 25202 ft 407 kts 12°
2026-05-07 04:56 41.86458 141.26402 24807 ft 407 kts 12°
2026-05-07 04:56 41.89074 141.27730 24428 ft 406 kts 13°
2026-05-07 04:57 41.91712 141.29071 24043 ft 405 kts 13°
2026-05-07 04:57 41.94337 141.30491 23666 ft 409 kts 18°
2026-05-07 04:57 41.96834 141.32382 23226 ft 416 kts 27°
2026-05-07 04:57 41.99167 141.34714 22805 ft 420 kts 36°
2026-05-07 04:58 42.01301 141.37397 22429 ft 419 kts 39°
2026-05-07 04:58 42.03384 141.40134 22043 ft 418 kts 39°
2026-05-07 04:58 42.05457 141.42863 21653 ft 416 kts 39°
2026-05-07 04:58 42.07532 141.45565 21274 ft 414 kts 39°
2026-05-07 04:59 42.09603 141.48236 20886 ft 413 kts 39°
2026-05-07 04:59 42.11681 141.50908 20497 ft 411 kts 39°
2026-05-07 04:59 42.13830 141.53394 20089 ft 403 kts 28°
2026-05-07 04:59 42.16226 141.55285 19715 ft 396 kts 22°
2026-05-07 05:00 42.18665 141.57006 19314 ft 395 kts 21°
2026-05-07 05:00 42.21109 141.58717 18914 ft 395 kts 22°
2026-05-07 05:00 42.23538 141.60448 18510 ft 396 kts 22°
2026-05-07 05:00 42.25966 141.62211 18068 ft 397 kts 23°
2026-05-07 05:01 42.28388 141.63996 17612 ft 396 kts 24°
2026-05-07 05:01 42.30805 141.65795 17172 ft 396 kts 24°
2026-05-07 05:01 42.33207 141.67590 16741 ft 395 kts 24°
2026-05-07 05:01 42.35608 141.69387 16324 ft 394 kts 24°
2026-05-07 05:02 42.38001 141.71180 15891 ft 393 kts 24°
2026-05-07 05:02 42.40390 141.72971 15467 ft 392 kts 24°
2026-05-07 05:02 42.42770 141.74756 15041 ft 391 kts 24°
2026-05-07 05:02 42.45117 141.76517 14607 ft 391 kts 24°
2026-05-07 05:03 42.47489 141.78298 14218 ft 389 kts 25°
2026-05-07 05:03 42.49851 141.80074 13830 ft 387 kts 25°
2026-05-07 05:03 42.52202 141.81843 13379 ft 386 kts 25°
2026-05-07 05:03 42.54546 141.83609 12918 ft 385 kts 25°
2026-05-07 05:04 42.56881 141.85365 12472 ft 380 kts 24°
2026-05-07 05:04 42.59287 141.86585 12020 ft 363 kts
2026-05-07 05:04 42.61744 141.86613 11605 ft 345 kts 348°
2026-05-07 05:04 42.64130 141.86324 11200 ft 345 kts 348°
2026-05-07 05:05 42.66524 141.86068 10785 ft 345 kts 349°
2026-05-07 05:05 42.68883 141.85834 10362 ft 332 kts 349°
2026-05-07 05:05 42.71113 141.85622 10162 ft 309 kts 349°
2026-05-07 05:05 42.72501 141.85491 10015 ft 297 kts 349°
2026-05-07 05:06 42.75174 141.85228 9539 ft 288 kts 348°
2026-05-07 05:06 42.77173 141.85027 9195 ft 289 kts 348°
2026-05-07 05:06 42.79191 141.84826 8839 ft 291 kts 349°
2026-05-07 05:06 42.81216 141.84630 8505 ft 292 kts 349°
2026-05-07 05:07 42.83226 141.84340 8172 ft 288 kts 342°
2026-05-07 05:07 42.84543 141.83959 7944 ft 286 kts 339°
2026-05-07 05:07 42.86470 141.83305 7585 ft 281 kts 339°
2026-05-07 05:07 42.88294 141.82683 7279 ft 266 kts 339°
2026-05-07 05:08 42.90054 141.82097 7063 ft 248 kts 338°
2026-05-07 05:08 42.91658 141.81571 6800 ft 235 kts 338°
2026-05-07 05:08 42.93263 141.81045 6419 ft 239 kts 338°
2026-05-07 05:08 42.94894 141.80518 6098 ft 241 kts 339°
2026-05-07 05:09 42.96499 141.80009 5771 ft 232 kts 339°
2026-05-07 05:09 42.98036 141.79526 5480 ft 222 kts 338°
2026-05-07 05:09 42.99510 141.79062 5242 ft 211 kts 337°
2026-05-07 05:09 43.00782 141.78340 4982 ft 189 kts 312°
2026-05-07 05:10 43.01691 141.77148 4759 ft 176 kts 295°
2026-05-07 05:10 43.02024 141.75620 4363 ft 166 kts 259°
2026-05-07 05:10 43.01675 141.74164 4121 ft 162 kts 237°
2026-05-07 05:10 43.00979 141.72989 3901 ft 158 kts 230°
2026-05-07 05:11 43.00285 141.71844 3714 ft 152 kts 229°
2026-05-07 05:11 42.99400 141.71110 3543 ft 154 kts 193°
2026-05-07 05:11 42.98323 141.71440 3473 ft 164 kts 167°
2026-05-07 05:11 42.97253 141.71597 3388 ft 157 kts 201°
2026-05-07 05:12 42.96290 141.70899 3344 ft 157 kts 213°
2026-05-07 05:12 42.95344 141.70184 3255 ft 151 kts 211°
2026-05-07 05:12 42.94428 141.69588 3159 ft 144 kts 204°
2026-05-07 05:12 42.93508 141.69141 3092 ft 139 kts 203°
2026-05-07 05:13 42.92590 141.68695 2957 ft 145 kts 204°
2026-05-07 05:13 42.91630 141.68294 2681 ft 145 kts 200°
2026-05-07 05:13 42.90667 141.67927 2456 ft 137 kts 200°
2026-05-07 05:13 42.89772 141.67606 2250 ft 134 kts 191°
2026-05-07 05:14 42.88840 141.67655 2100 ft 135 kts 183°
2026-05-07 05:14 42.87913 141.67684 1889 ft 130 kts 182°
2026-05-07 05:14 42.87063 141.67762 1741 ft 117 kts 178°
2026-05-07 05:14 42.86281 141.67901 1554 ft 111 kts 178°
2026-05-07 05:15 42.85485 141.68035 1377 ft 120 kts 176°
2026-05-07 05:15 42.84666 141.68178 1281 ft 119 kts 175°
2026-05-07 05:15 42.83849 141.68322 1101 ft 117 kts 175°
2026-05-07 05:15 42.83034 141.68466 927 ft 120 kts 176°
2026-05-07 05:16 42.82236 141.68584 778 ft 112 kts 173°
2026-05-07 05:16 42.81473 141.68724 627 ft 114 kts 170°
2026-05-07 05:16 42.80698 141.68852 481 ft 108 kts 171°
2026-05-07 05:16 42.79926 141.68996 333 ft 121 kts 171°
2026-05-07 05:17 42.79085 141.69131 164 ft 119 kts 169°
2026-05-07 05:17 42.78301 141.69276 67 ft 103 kts 170°
2026-05-07 05:17 42.77751 141.69374 65 ft 54 kts 172°
2026-05-07 05:17 42.77489 141.69419 66 ft 36 kts 174°
2026-05-07 05:18 42.77269 141.69373 69 ft 30 kts 198°
2026-05-07 05:18 42.77156 141.69311 64 ft 9 kts 202°
2026-05-07 05:18 42.77099 141.69273 68 ft 8 kts 220°
2026-05-07 05:18 42.77075 141.69204 66 ft 8 kts 257°
2026-05-07 05:19 42.77068 141.69126 66 ft 8 kts 263°
2026-05-07 05:19 42.77060 141.69048 74 ft 9 kts 261°
2026-05-07 05:19 42.77064 141.68962 71 ft 10 kts 287°
2026-05-07 05:19 42.77106 141.68895 62 ft 10 kts 332°
2026-05-07 05:20 42.77186 141.68875 68 ft 16 kts 353°
2026-05-07 05:20 42.77297 141.68856 65 ft 16 kts 353°
2026-05-07 05:20 42.77407 141.68836 65 ft 16 kts 352°
2026-05-07 05:20 42.77517 141.68817 68 ft 16 kts 353°
2026-05-07 05:21 42.77628 141.68798 70 ft 16 kts 353°
2026-05-07 05:21 42.77848 141.68759 64 ft 16 kts 352°
2026-05-07 05:21 42.77959 141.68739 68 ft 16 kts 353°
2026-05-07 05:22 42.78069 141.68720 66 ft 16 kts 353°
2026-05-07 05:22 42.78180 141.68702 67 ft 16 kts 353°
2026-05-07 05:22 42.78290 141.68682 66 ft 16 kts 352°
2026-05-07 05:22 42.78400 141.68663 65 ft 16 kts 353°
2026-05-07 05:23 42.78511 141.68644 64 ft 16 kts 353°
2026-05-07 05:23 42.78600 141.68629 65 ft 9 kts 353°
2026-05-07 05:23 42.78651 141.68620 64 ft 6 kts 350°
2026-05-07 05:23 42.78676 141.68575 65 ft 7 kts 276°
2026-05-07 05:24 42.78673 141.68513 68 ft 7 kts 265°
2026-05-07 05:24 42.78680 141.68455 69 ft 5 kts 296°
2026-05-07 05:24 42.78706 141.68420 64 ft 5 kts 320°
2026-05-07 05:24 42.78723 141.68377 62 ft 6 kts 276°
2026-05-07 05:25 42.78724 141.68325 65 ft 5 kts 273°
2026-05-07 05:25 42.78726 141.68294 66 ft 2 kts 273°
2026-05-07 05:25 42.78726 141.68288 66 ft 0 kts 273°